Sedalia, MO

9:22 PM CDT on June 23, 2017 (GMT -0500)
Sedalia Memorial

Weather History for KDMO - January, 2014

Change the Weather History Date:

Monday, January 6, 2014

  Actual Average Record
Temperature  
Mean Temperature -4 °F 31 °F  
Max Temperature 2 °F 40 °F 70 °F (2008)
Min Temperature -10 °F 23 °F -10 °F (2014)
Degree Days  
Heating Degree Days 69 34  
Month to date heating degree days 296 202  
Since 1 July heating degree days 2270 1983  
Cooling Degree Days 0 0  
Month to date cooling degree days 0 0  
Year to date cooling degree days 0 0  
Moisture  
Dew Point -15 °F    
Average Humidity 60    
Maximum Humidity 72    
Minimum Humidity 47    
Precipitation  
Precipitation 0.00 in 0.04 in 0.47 in (1946)
Month to date precipitation 0.03 0.30  
Year to date precipitation 0.03 0.30  
Sea Level Pressure  
Sea Level Pressure 30.55 in    
Wind  
Wind Speed 12 mph (WNW)    
Max Wind Speed 22 mph    
Max Gust Speed 29 mph    
Visibility 10 miles    
Events      
T = Trace of Precipitation, MM = Missing Value Source: NWS Daily Summary

Daily Weather History Graph

Daily Weather History Graph

Search for Another Location

Airport or City:

Trip Planner

Search our weather history database for the weather conditions in past years. The results will help you decide how hot, cold, wet, or windy it might be!

Date:

Astronomy

Jan. 06, 2014 Rise Set
Actual Time 7:31 AM CST 5:06 PM CST
Civil Twilight 7:01 AM CST 5:35 PM CST
Nautical Twilight 6:28 AM CST 6:09 PM CST
Astronomical Twilight 5:56 AM CST 6:41 PM CST
Moon 10:50 AM CST (1/6) 11:35 PM CST (1/6)
Length of Visible Light 10h 34m
Length of Day
9h 35m
Waxing Crescent, 35% of the Moon is Illuminated
Jan 6
Waxing Crescent
Jan 7
First Quarter
Jan 15
Full
Jan 23
Last Quarter
Jan 30
New

Hourly Weather History & Observations

Time (CST) Temp. Windchill Dew Point Humidity Pressure Visibility Wind Dir Wind Speed Gust Speed Precip Events Conditions
12:53 AM -0.0 °F -18.7 °F -13.0 °F 54% 30.52 in 10.0 mi NW 13.8 mph - N/A   Mostly Cloudy
1:13 AM -0.0 °F -18.7 °F -13.0 °F 54% 30.46 in 10.0 mi NW 13.8 mph - N/A   Overcast
1:25 AM -0.0 °F -20.7 °F -11.9 °F 57% 30.46 in 10.0 mi NW 17.3 mph 26.5 mph N/A   Overcast
1:37 AM -0.9 °F -21.9 °F -9.9 °F 66% 30.46 in 10.0 mi NW 17.3 mph 24.2 mph N/A   Overcast
1:53 AM -0.9 °F -21.9 °F -8.0 °F 72% 30.54 in 3.0 mi NW 17.3 mph 25.3 mph 0.00 in   Overcast
2:48 AM -4.0 °F -25.8 °F -18.4 °F 50% 30.50 in 10.0 mi NW 17.3 mph 24.2 mph 0.00 in   Scattered Clouds
2:53 AM -4.0 °F -25.8 °F -18.0 °F 51% 30.57 in 10.0 mi NW 17.3 mph 25.3 mph 0.00 in   Partly Cloudy
3:53 AM -6.0 °F -25.5 °F -18.9 °F 54% 30.58 in 10.0 mi NW 12.7 mph 23.0 mph N/A   Clear
4:53 AM -6.0 °F -25.5 °F -20.0 °F 51% 30.58 in 10.0 mi WNW 12.7 mph - N/A   Clear
5:53 AM -7.1 °F -25.0 °F -20.0 °F 53% 30.57 in 10.0 mi WNW 10.4 mph - N/A   Clear
6:53 AM -9.0 °F -23.8 °F -20.0 °F 59% 30.58 in 10.0 mi West 6.9 mph - N/A   Clear
7:53 AM -8.0 °F -26.1 °F -18.9 °F 59% 30.59 in 10.0 mi West 10.4 mph - N/A   Clear
8:53 AM -6.0 °F -25.5 °F -18.0 °F 56% 30.61 in 10.0 mi West 12.7 mph - N/A   Clear
9:53 AM -4.0 °F -25.8 °F -17.0 °F 54% 30.62 in 10.0 mi WNW 17.3 mph - 0.00 in   Clear
10:53 AM -2.9 °F -24.4 °F -16.1 °F 54% 30.62 in 10.0 mi WNW 17.3 mph - 0.00 in   Clear
11:53 AM -0.9 °F -21.9 °F -15.0 °F 52% 30.59 in 10.0 mi WNW 17.3 mph - 0.00 in   Clear
12:53 PM -0.0 °F -18.7 °F -15.0 °F 49% 30.57 in 10.0 mi WNW 13.8 mph - 0.00 in   Clear
1:53 PM 1.0 °F -19.3 °F -14.1 °F 49% 30.56 in 10.0 mi West 17.3 mph - N/A   Partly Cloudy
2:53 PM 1.9 °F -17.5 °F -13.0 °F 50% 30.57 in 10.0 mi WNW 16.1 mph - N/A   Clear
3:53 PM 1.9 °F -12.9 °F -11.9 °F 52% 30.57 in 10.0 mi WNW 9.2 mph - N/A   Scattered Clouds
4:53 PM 1.0 °F -11.7 °F -13.0 °F 52% 30.57 in 10.0 mi NW 6.9 mph - N/A   Clear
5:53 PM -2.0 °F -12.2 °F -14.1 °F 57% 30.57 in 10.0 mi West 4.6 mph - N/A   Clear
6:53 PM -2.0 °F -12.2 °F -13.0 °F 60% 30.57 in 10.0 mi SSW 4.6 mph - N/A   Clear
7:53 PM -2.9 °F -17.7 °F -14.1 °F 59% 30.57 in 10.0 mi SSW 8.1 mph - N/A   Clear
8:53 PM -4.0 °F -19.0 °F -14.1 °F 62% 30.56 in 10.0 mi SW 8.1 mph - N/A   Clear
9:53 PM -2.9 °F -16.5 °F -13.0 °F 62% 30.54 in 10.0 mi SW 6.9 mph - N/A   Clear
10:53 PM -2.9 °F -19.8 °F -13.0 °F 62% 30.52 in 10.0 mi SSW 10.4 mph - N/A   Clear
11:53 PM -0.9 °F -19.1 °F -11.9 °F 60% 30.51 in 10.0 mi SW 12.7 mph - N/A   Clear